This is the latest recevied weather packets stored in our database for station/object K5IDL. If no packets are shown the sender has not sent any weather packets the latest 10 day(s).
| Time | Temp. | Humidity | Pressure | Rain* | Wind** | Luminosity | Snow |
|---|---|---|---|---|---|---|---|
| 1787873937 | 35.56° C | 38% | 1014.2 hPa | 0 mm | - | 14 W/m² | - |
| 1787873636 | 35.56° C | 38% | 1014.3 hPa | 0 mm | - | 16 W/m² | - |
| 1787873332 | 35.56° C | 40% | 1014.2 hPa | 0 mm | - | 16 W/m² | - |
| 1787873030 | 36.11° C | 39% | 1014.2 hPa | 0 mm | - | 17 W/m² | - |
| 1787872725 | 36.11° C | 39% | 1014.1 hPa | 0 mm | - | 19 W/m² | - |
| 1787872422 | 36.67° C | 38% | 1014.1 hPa | 0 mm | - | 30 W/m² | - |
| 1787872117 | 36.67° C | 38% | 1014.3 hPa | 0 mm | - | 43 W/m² | - |
| 1787871816 | 36.67° C | 38% | 1014.3 hPa | 0 mm | - | 28 W/m² | - |
| 1787871511 | 36.67° C | 38% | 1014.2 hPa | 0 mm | - | 136 W/m² | - |
| 1787871207 | 36.67° C | 38% | 1014.5 hPa | 0 mm | - | 24 W/m² | - |
| 1787870906 | 36.67° C | 38% | 1014.5 hPa | 0 mm | - | 24 W/m² | - |
| 1787870601 | 36.67° C | 38% | 1014.4 hPa | 0 mm | - | 35 W/m² | - |
| 1787870297 | 36.67° C | 37% | 1014.4 hPa | 0 mm | - | 24 W/m² | - |
| 1787869992 | 36.67° C | 37% | 1014.5 hPa | 0 mm | - | 26 W/m² | - |
| 1787869691 | 36.67° C | 37% | 1014.6 hPa | 0 mm | - | 27 W/m² | - |
| 1787869391 | 36.67° C | 37% | 1014.7 hPa | 0 mm | - | 93 W/m² | - |
| 1787869091 | 36.67° C | 38% | 1014.8 hPa | 0 mm | - | 29 W/m² | - |
| 1787868789 | 36.67° C | 38% | 1014.7 hPa | 0 mm | - | 93 W/m² | - |
| 1787868488 | 36.67° C | 39% | 1014.7 hPa | 0 mm | - | 212 W/m² | - |
| 1787868188 | 36.67° C | 40% | 1014.7 hPa | 0 mm | - | 81 W/m² | - |
| 1787867883 | 36.67° C | 39% | 1014.7 hPa | 0 mm | - | 55 W/m² | - |
| 1787867579 | 36.67° C | 39% | 1014.9 hPa | 0 mm | - | 175 W/m² | - |
| 1787867272 | 36.67° C | 39% | 1014.9 hPa | 0 mm | - | 36 W/m² | - |
| 1787866969 | 37.22° C | 39% | 1014.9 hPa | 0 mm | - | 60 W/m² | - |
| 1787866664 | 36.67° C | 39% | 1015.1 hPa | 0 mm | - | 38 W/m² | - |
* Rain latest hour (hover to see other rain measurements)
** Current wind speed in m/s (hover to see current wind gust speed)